Iron Mountain, MI

10:52 PM CST on January 17, 2018 (GMT -0600)
Ford

Weather History for KIMT - October, 2014

Change the Weather History Date:

Friday, October 31, 2014

  Actual Average Record
Temperature  
Mean Temperature 32 °F -  
Max Temperature 36 °F 50 °F 78 °F (1950)
Min Temperature 28 °F 31 °F 16 °F (1984)
Degree Days  
Heating Degree Days 33    
Moisture  
Dew Point 23 °F    
Average Humidity 71    
Maximum Humidity 89    
Minimum Humidity 52    
Precipitation  
Precipitation 0.00 in - - ()
Sea Level Pressure  
Sea Level Pressure 30.29 in    
Wind  
Wind Speed 17 mph (North)    
Max Wind Speed 24 mph    
Max Gust Speed 33 mph    
Visibility 8 miles    
Events Snow    
Averages and records for this station are not official NWS values.
T = Trace of Precipitation, MM = Missing Value Source: NWS Daily Summary

Daily Weather History Graph

Daily Weather History Graph

Search for Another Location

Airport or City:

Trip Planner

Search our weather history database for the weather conditions in past years. The results will help you decide how hot, cold, wet, or windy it might be!

Date:

Astronomy

Oct. 31, 2014 Rise Set
Actual Time 7:31 AM CDT 5:40 PM CDT
Civil Twilight 7:00 AM CDT 6:11 PM CDT
Nautical Twilight 6:25 AM CDT 6:46 PM CDT
Astronomical Twilight 5:50 AM CDT 7:20 PM CDT
Moon 2:14 PM CDT (10/31) No Moon Set
Length of Visible Light 11h 11m
Length of Day
10h 09m
First Quarter, 57% of the Moon is Illuminated
Oct 31
First Quarter
Nov 6
Full
Nov 14
Last Quarter
Nov 22
New
Nov 29
First Quarter

Hourly Weather History & Observations

Time (CDT) Temp. Windchill Dew Point Humidity Pressure Visibility Wind Dir Wind Speed Gust Speed Precip Events Conditions
12:52 AM 35.6 °F 26.2 °F 30.2 °F 81% 30.02 in 2.5 mi North 15.0 mph 25.3 mph 0.00 in Snow Light Snow
12:54 AM 34.0 °F 23.4 °F 30.9 °F 89% 30.06 in 2.5 mi North 17.3 mph 25.3 mph 0.00 in Snow Light Snow
1:05 AM 34.0 °F 22.7 °F 30.0 °F 85% 30.03 in 1.8 mi North 19.6 mph 25.3 mph 0.00 in Snow Light Snow
1:14 AM 34.0 °F 25.0 °F 30.9 °F 89% 30.04 in 3.0 mi North 12.7 mph - 0.00 in Snow Light Snow
1:31 AM 34.0 °F 22.1 °F 28.0 °F 79% 30.05 in 10.0 mi North 21.9 mph 28.8 mph 0.00 in   Overcast
1:54 AM 34.0 °F 24.2 °F 28.9 °F 82% 30.10 in 8.0 mi North 15.0 mph 28.8 mph 0.00 in   Overcast
2:54 AM 34.0 °F 23.0 °F 27.0 °F 75% 30.13 in 10.0 mi North 18.4 mph 26.5 mph 0.00 in   Overcast
3:07 AM 33.1 °F 21.9 °F 27.0 °F 78% 30.10 in 10.0 mi North 18.4 mph 33.4 mph N/A   Overcast
3:18 AM 33.1 °F 21.2 °F 27.0 °F 78% 30.11 in 10.0 mi North 20.7 mph 28.8 mph N/A   Overcast
3:54 AM 33.1 °F 23.0 °F 26.1 °F 75% 30.17 in 10.0 mi North 15.0 mph 32.2 mph 0.00 in   Overcast
4:21 AM 30.9 °F 19.4 °F 27.0 °F 85% 30.15 in 1.8 mi NNW 17.3 mph 25.3 mph 0.00 in Snow Light Snow
4:41 AM 30.9 °F 19.8 °F 27.0 °F 85% 30.17 in 3.0 mi North 16.1 mph 24.2 mph 0.00 in Snow Light Snow
4:54 AM 30.9 °F 19.8 °F 27.0 °F 85% 30.22 in 2.0 mi North 16.1 mph 25.3 mph 0.00 in Snow Light Snow
5:07 AM 30.9 °F 20.2 °F 26.1 °F 82% 30.18 in 6.0 mi North 15.0 mph - 0.00 in Snow Light Snow
5:54 AM 30.0 °F 17.5 °F 23.0 °F 75% 30.25 in 10.0 mi North 19.6 mph 27.6 mph 0.00 in   Mostly Cloudy
6:54 AM 30.0 °F 17.5 °F 21.9 °F 72% 30.28 in 10.0 mi North 19.6 mph 29.9 mph N/A   Mostly Cloudy
7:34 AM 28.9 °F 15.8 °F 21.9 °F 75% 30.25 in 10.0 mi North 20.7 mph 28.8 mph N/A   Mostly Cloudy
7:44 AM 28.9 °F 16.9 °F 21.9 °F 75% 30.26 in 10.0 mi North 17.3 mph 29.9 mph N/A   Mostly Cloudy
7:54 AM 28.9 °F 16.5 °F 21.9 °F 75% 30.31 in 9.0 mi North 18.4 mph 26.5 mph N/A   Mostly Cloudy
8:30 AM 30.0 °F 17.9 °F 21.9 °F 72% 30.29 in 6.0 mi North 18.4 mph 29.9 mph 0.00 in Snow Light Snow
8:40 AM 30.0 °F 18.3 °F 21.9 °F 72% 30.29 in 3.0 mi North 17.3 mph 33.4 mph 0.00 in Snow Light Snow
8:47 AM 30.0 °F 16.9 °F 21.9 °F 72% 30.29 in 9.0 mi North 21.9 mph 31.1 mph 0.00 in   Mostly Cloudy
8:54 AM 30.0 °F 16.9 °F 21.9 °F 72% 30.34 in 10.0 mi North 21.9 mph 32.2 mph 0.00 in   Mostly Cloudy
9:29 AM 30.0 °F 17.2 °F 21.9 °F 72% 30.31 in 9.0 mi North 20.7 mph 29.9 mph 0.00 in Snow Light Snow
9:54 AM 30.9 °F 19.1 °F 23.0 °F 72% 30.37 in 10.0 mi North 18.4 mph 26.5 mph 0.00 in   Overcast
10:01 AM 30.9 °F 18.4 °F 23.0 °F 72% 30.32 in 10.0 mi North 20.7 mph - N/A   Overcast
10:54 AM 30.9 °F 18.4 °F 23.0 °F 72% 30.39 in 9.0 mi North 20.7 mph 27.6 mph 0.00 in   Overcast
11:09 AM 32.0 °F 21.2 °F 23.0 °F 69% 30.34 in 8.0 mi North 16.1 mph 25.3 mph 0.00 in Snow Light Snow
11:54 AM 33.1 °F 20.3 °F 23.0 °F 66% 30.40 in 10.0 mi North 24.2 mph 31.1 mph 0.00 in   Overcast
12:05 PM 33.1 °F 21.9 °F 24.1 °F 70% 30.36 in 10.0 mi North 18.4 mph 33.4 mph N/A   Overcast
12:17 PM 33.1 °F 21.2 °F 21.9 °F 64% 30.36 in 10.0 mi North 20.7 mph 31.1 mph N/A   Overcast
12:54 PM 33.1 °F 22.6 °F 21.9 °F 64% 30.40 in 10.0 mi NNE 16.1 mph 23.0 mph N/A   Mostly Cloudy
1:54 PM 34.0 °F 25.0 °F 19.9 °F 56% 30.40 in 10.0 mi NNE 12.7 mph 29.9 mph 0.00 in   Mostly Cloudy
2:54 PM 36.0 °F 25.6 °F 21.9 °F 57% 30.42 in 10.0 mi NNW 18.4 mph 25.3 mph N/A   Overcast
3:54 PM 33.1 °F 21.9 °F 18.0 °F 54% 30.43 in 10.0 mi North 18.4 mph 26.5 mph N/A   Mostly Cloudy
4:54 PM 33.1 °F 22.2 °F 19.0 °F 56% 30.44 in 10.0 mi North 17.3 mph 23.0 mph N/A   Mostly Cloudy
5:54 PM 32.0 °F 22.5 °F 16.0 °F 52% 30.45 in 10.0 mi North 12.7 mph - N/A   Overcast
6:54 PM 32.0 °F 22.5 °F 17.1 °F 54% 30.47 in 10.0 mi North 12.7 mph 23.0 mph N/A   Mostly Cloudy
7:54 PM 32.0 °F 22.5 °F 19.0 °F 59% 30.47 in 10.0 mi NNW 12.7 mph - N/A   Overcast
8:54 PM 30.9 °F 20.2 °F 18.0 °F 59% 30.48 in 10.0 mi NNW 15.0 mph 21.9 mph N/A   Overcast
9:54 PM 30.9 °F 22.2 °F 18.0 °F 59% 30.50 in 10.0 mi North 10.4 mph 19.6 mph N/A   Overcast
10:54 PM 30.0 °F 21.7 °F 18.0 °F 61% 30.48 in 10.0 mi NNW 9.2 mph - N/A   Overcast
11:54 PM 30.0 °F 21.1 °F 18.0 °F 61% 30.48 in 10.0 mi North 10.4 mph - N/A   Overcast